TimeAKDT,TemperatureF,Dew PointF,Humidity,Sea Level PressureIn,VisibilityMPH,Wind Direction,Wind SpeedMPH,Gust SpeedMPH,PrecipitationIn,Events,Conditions,WindDirDegrees,DateUTC
12:16 AM,44.6,42.8,93,29.97,10.0,Calm,Calm,-,N/A,,Overcast,0,2012-10-04 08:16:00
12:36 AM,44.6,42.8,93,29.97,10.0,Calm,Calm,-,N/A,,Overcast,0,2012-10-04 08:36:00
12:56 AM,44.6,42.8,93,29.96,10.0,Calm,Calm,-,N/A,,Overcast,0,2012-10-04 08:56:00
1:16 AM,44.6,42.8,93,29.97,10.0,West,8.1,-,N/A,,Overcast,270,2012-10-04 09:16:00
1:36 AM,44.6,42.8,93,29.96,10.0,West,4.6,-,N/A,,Overcast,270,2012-10-04 09:36:00
1:56 AM,44.6,42.8,93,29.96,10.0,West,8.1,-,N/A,,Overcast,280,2012-10-04 09:56:00
2:16 AM,44.6,42.8,93,29.96,10.0,West,4.6,-,N/A,,Overcast,270,2012-10-04 10:16:00
2:36 AM,44.6,42.8,93,29.96,10.0,West,8.1,-,N/A,,Overcast,280,2012-10-04 10:36:00
2:56 AM,44.6,42.8,93,29.96,10.0,WNW,4.6,-,N/A,,Scattered Clouds,300,2012-10-04 10:56:00
3:16 AM,44.6,42.8,93,29.95,10.0,Calm,Calm,-,N/A,,Scattered Clouds,0,2012-10-04 11:16:00
3:36 AM,44.6,42.8,93,29.95,10.0,WNW,3.5,-,N/A,,Overcast,290,2012-10-04 11:36:00
3:56 AM,44.6,42.8,93,29.94,10.0,WSW,4.6,-,N/A,,Mostly Cloudy,250,2012-10-04 11:56:00
4:16 AM,44.6,42.8,93,29.94,10.0,Calm,Calm,-,N/A,,Scattered Clouds,0,2012-10-04 12:16:00
4:36 AM,44.6,42.8,93,29.93,10.0,West,5.8,-,N/A,,Clear,270,2012-10-04 12:36:00
4:56 AM,42.8,42.8,100,29.93,10.0,West,6.9,-,N/A,,Clear,280,2012-10-04 12:56:00
5:16 AM,44.6,42.8,93,29.93,10.0,NW,3.5,-,N/A,,Clear,310,2012-10-04 13:16:00
5:36 AM,44.6,42.8,93,29.93,10.0,WNW,4.6,-,N/A,,Partly Cloudy,290,2012-10-04 13:36:00
5:56 AM,44.6,42.8,93,29.93,10.0,West,4.6,-,N/A,,Mostly Cloudy,280,2012-10-04 13:56:00
6:16 AM,44.6,42.8,93,29.93,10.0,SW,8.1,-,N/A,,Overcast,230,2012-10-04 14:16:00
6:36 AM,44.6,42.8,93,29.93,10.0,WSW,3.5,-,N/A,,Overcast,250,2012-10-04 14:36:00
6:56 AM,44.6,42.8,93,29.92,10.0,Calm,Calm,-,N/A,,Mostly Cloudy,0,2012-10-04 14:56:00
7:16 AM,44.6,42.8,93,29.94,10.0,Calm,Calm,-,N/A,,Overcast,0,2012-10-04 15:16:00
7:36 AM,44.6,42.8,93,29.94,10.0,Calm,Calm,-,N/A,,Overcast,0,2012-10-04 15:36:00
7:56 AM,44.6,42.8,93,29.95,10.0,WNW,4.6,-,N/A,,Overcast,300,2012-10-04 15:56:00
8:16 AM,44.6,42.8,93,29.96,10.0,Calm,Calm,-,N/A,,Overcast,0,2012-10-04 16:16:00
8:36 AM,44.6,42.8,93,29.95,10.0,Calm,Calm,-,N/A,,Overcast,0,2012-10-04 16:36:00
8:56 AM,44.6,42.8,93,29.94,10.0,East,5.8,-,N/A,,Overcast,90,2012-10-04 16:56:00
9:16 AM,44.6,42.8,93,29.93,10.0,Calm,Calm,-,N/A,,Overcast,0,2012-10-04 17:16:00
9:36 AM,46.4,42.8,87,29.93,10.0,SE,3.5,-,N/A,,Mostly Cloudy,130,2012-10-04 17:36:00
9:56 AM,46.4,42.8,87,29.93,10.0,Calm,Calm,-,N/A,,Overcast,0,2012-10-04 17:56:00
10:16 AM,44.6,44.6,100,29.94,10.0,Calm,Calm,-,N/A,,Overcast,0,2012-10-04 18:16:00
10:36 AM,46.4,44.6,93,29.94,10.0,Calm,Calm,-,N/A,,Overcast,0,2012-10-04 18:36:00
10:56 AM,46.4,44.6,93,29.95,10.0,Calm,Calm,-,N/A,,Overcast,0,2012-10-04 18:56:00
11:16 AM,46.4,44.6,93,29.95,10.0,SW,3.5,-,N/A,,Overcast,230,2012-10-04 19:16:00
11:36 AM,48.2,44.6,87,29.95,10.0,NW,6.9,-,N/A,,Overcast,310,2012-10-04 19:36:00
11:56 AM,48.2,44.6,87,29.95,10.0,West,4.6,-,N/A,,Overcast,270,2012-10-04 19:56:00
12:16 PM,48.2,46.4,93,29.95,10.0,Calm,Calm,-,N/A,,Overcast,0,2012-10-04 20:16:00
12:36 PM,48.2,46.4,93,29.95,10.0,Calm,Calm,-,N/A,,Overcast,0,2012-10-04 20:36:00
12:56 PM,48.2,46.4,93,29.95,9.0,Calm,Calm,-,N/A,,Overcast,0,2012-10-04 20:56:00
1:16 PM,50.0,46.4,87,29.96,10.0,Calm,Calm,-,N/A,,Overcast,0,2012-10-04 21:16:00
1:36 PM,51.8,46.4,82,29.96,10.0,West,3.5,-,N/A,,Overcast,280,2012-10-04 21:36:00
1:56 PM,51.8,48.2,88,29.97,10.0,Calm,Calm,-,N/A,,Overcast,0,2012-10-04 21:56:00
2:16 PM,51.8,48.2,88,29.97,10.0,Calm,Calm,-,N/A,,Overcast,0,2012-10-04 22:16:00
2:36 PM,53.6,48.2,82,29.97,10.0,Calm,Calm,-,N/A,,Overcast,0,2012-10-04 22:36:00
2:56 PM,53.6,50.0,88,29.97,10.0,Calm,Calm,-,N/A,,Overcast,0,2012-10-04 22:56:00
3:16 PM,53.6,50.0,88,29.98,10.0,West,4.6,-,N/A,,Overcast,280,2012-10-04 23:16:00
3:36 PM,55.4,50.0,82,29.98,10.0,WNW,3.5,-,N/A,,Overcast,300,2012-10-04 23:36:00
3:56 PM,55.4,50.0,82,29.99,10.0,WNW,8.1,-,N/A,,Overcast,290,2012-10-04 23:56:00
4:16 PM,55.4,48.2,77,29.99,10.0,West,9.2,-,N/A,,Overcast,270,2012-10-05 00:16:00
4:36 PM,55.4,48.2,77,30.00,10.0,West,4.6,-,N/A,,Scattered Clouds,280,2012-10-05 00:36:00
4:56 PM,55.4,46.4,72,30.00,10.0,West,6.9,-,N/A,,Mostly Cloudy,280,2012-10-05 00:56:00
5:16 PM,57.2,46.4,67,30.01,10.0,West,4.6,-,N/A,,Overcast,260,2012-10-05 01:16:00
5:36 PM,57.2,44.6,63,30.01,10.0,West,5.8,-,N/A,,Overcast,260,2012-10-05 01:36:00
5:56 PM,55.4,46.4,72,30.02,10.0,West,5.8,-,N/A,,Mostly Cloudy,270,2012-10-05 01:56:00
6:16 PM,55.4,44.6,67,30.02,10.0,West,8.1,-,N/A,,Mostly Cloudy,260,2012-10-05 02:16:00
6:36 PM,53.6,44.6,72,30.03,10.0,WSW,6.9,-,N/A,,Scattered Clouds,250,2012-10-05 02:36:00
6:56 PM,51.8,44.6,76,30.04,10.0,WSW,9.2,-,N/A,,Scattered Clouds,250,2012-10-05 02:56:00
7:16 PM,51.8,44.6,76,30.04,10.0,West,9.2,-,N/A,,Mostly Cloudy,260,2012-10-05 03:16:00
7:36 PM,50.0,44.6,82,30.06,10.0,West,6.9,-,N/A,,Scattered Clouds,270,2012-10-05 03:36:00
7:56 PM,48.2,44.6,87,30.06,10.0,West,5.8,-,N/A,,Clear,280,2012-10-05 03:56:00
8:16 PM,48.2,44.6,87,30.07,10.0,West,4.6,-,N/A,,Clear,260,2012-10-05 04:16:00
8:36 PM,48.2,44.6,87,30.08,10.0,West,3.5,-,N/A,,Scattered Clouds,270,2012-10-05 04:36:00
8:56 PM,46.4,44.6,93,30.08,10.0,WSW,4.6,-,N/A,,Scattered Clouds,250,2012-10-05 04:56:00
9:16 PM,46.4,42.8,87,30.09,10.0,Calm,Calm,-,N/A,,Partly Cloudy,0,2012-10-05 05:16:00
9:36 PM,44.6,42.8,93,30.10,10.0,Calm,Calm,-,N/A,,Mostly Cloudy,0,2012-10-05 05:36:00
9:56 PM,44.6,42.8,93,30.11,10.0,Calm,Calm,-,N/A,,Partly Cloudy,0,2012-10-05 05:56:00
10:16 PM,42.8,39.2,87,30.11,10.0,Calm,Calm,-,N/A,,Clear,0,2012-10-05 06:16:00
10:36 PM,41.0,39.2,93,30.12,9.0,East,4.6,-,N/A,,Mostly Cloudy,90,2012-10-05 06:36:00
10:56 PM,42.8,41.0,93,30.13,10.0,Calm,Calm,-,N/A,,Overcast,0,2012-10-05 06:56:00
11:16 PM,42.8,39.2,87,30.14,10.0,East,4.6,-,N/A,,Overcast,90,2012-10-05 07:16:00
11:36 PM,42.8,39.2,87,30.15,10.0,Calm,Calm,-,N/A,,Mostly Cloudy,0,2012-10-05 07:36:00
11:56 PM,41.0,39.2,93,30.15,10.0,Calm,Calm,-,N/A,,Partly Cloudy,0,2012-10-05 07:56:00